Time,TemperatureF,DewpointF,PressureIn,WindDirection,WindDirectionDegrees,WindSpeedMPH,WindSpeedGustMPH,Humidity,HourlyPrecipIn,Conditions,Clouds,dailyrainin,SoftwareType,DateUTC
2013-02-27 00:00:00,37.9,23.7,29.79,ENE,68,8.1,13.4,56,0.17,,---,0.00,VWS V14.01,2013-02-27 05:00:00,
2013-02-27 00:01:00,37.9,23.7,29.79,ENE,68,7.4,13.4,56,0.17,,---,0.00,VWS V14.01,2013-02-27 05:01:00,
2013-02-27 00:06:00,37.9,24.1,29.76,ENE,68,10.3,15.7,57,0.17,,---,0.00,VWS V14.01,2013-02-27 05:06:00,
2013-02-27 00:10:00,37.9,24.1,29.76,East,90,8.1,15.7,57,0.17,,---,0.00,VWS V14.01,2013-02-27 05:10:00,
2013-02-27 00:11:00,38.1,24.7,29.76,ENE,68,12.5,15.4,58,0.12,,---,0.00,VWS V14.01,2013-02-27 05:11:00,
2013-02-27 00:16:00,38.1,24.7,29.76,ESE,112,8.7,15.4,58,0.16,,---,0.04,VWS V14.01,2013-02-27 05:16:00,
2013-02-27 00:20:00,38.1,24.7,29.76,ESE,112,8.7,15.4,58,0.16,,---,0.04,VWS V14.01,2013-02-27 05:20:00,
2013-02-27 00:21:00,38.1,25.1,29.74,East,90,14.3,14.3,59,0.12,,---,0.04,VWS V14.01,2013-02-27 05:21:00,
2013-02-27 00:26:00,38.1,25.1,29.74,NNE,22,10.3,12.3,59,0.08,,---,0.04,VWS V14.01,2013-02-27 05:26:00,
2013-02-27 00:30:00,38.1,25.1,29.74,ENE,68,12.3,19.9,59,0.12,,---,0.04,VWS V14.01,2013-02-27 05:30:00,
2013-02-27 00:31:00,38.1,25.5,29.74,ESE,112,12.5,15.2,60,0.08,,---,0.04,VWS V14.01,2013-02-27 05:31:00,
2013-02-27 00:37:00,38.5,26.6,29.74,ENE,68,10.3,11.9,62,0.08,,---,0.04,VWS V14.01,2013-02-27 05:37:00,
2013-02-27 00:40:00,38.3,26.0,29.74,ENE,68,8.5,19.7,61,0.08,,---,0.04,VWS V14.01,2013-02-27 05:40:00,
2013-02-27 00:42:00,38.5,26.6,29.74,ENE,68,9.0,17.5,62,0.08,,---,0.04,VWS V14.01,2013-02-27 05:42:00,
2013-02-27 00:47:00,38.5,27.0,29.74,ENE,68,12.5,12.5,63,0.08,,---,0.04,VWS V14.01,2013-02-27 05:47:00,
2013-02-27 00:50:00,38.5,27.0,29.74,NE,45,10.5,17.5,63,0.08,,---,0.04,VWS V14.01,2013-02-27 05:50:00,
2013-02-27 00:52:00,38.7,27.2,29.71,ENE,68,10.7,17.2,63,0.08,,---,0.04,VWS V14.01,2013-02-27 05:52:00,
2013-02-27 00:57:00,38.8,27.7,29.71,NE,45,10.7,19.5,64,0.04,,---,0.04,VWS V14.01,2013-02-27 05:57:00,
2013-02-27 01:00:00,38.8,27.7,29.71,East,90,11.9,19.5,64,0.08,,---,0.04,VWS V14.01,2013-02-27 06:00:00,
2013-02-27 01:02:00,38.8,27.3,29.71,East,90,11.9,19.9,63,0.09,,---,0.09,VWS V14.01,2013-02-27 06:02:00,
2013-02-27 01:07:00,39.0,27.9,29.71,ENE,68,7.6,13.4,64,0.09,,---,0.09,VWS V14.01,2013-02-27 06:07:00,
2013-02-27 01:10:00,38.8,27.7,29.71,East,90,13.2,19.9,64,0.09,,---,0.09,VWS V14.01,2013-02-27 06:10:00,
2013-02-27 01:12:00,39.0,27.9,29.71,East,90,9.0,20.6,64,0.09,,---,0.09,VWS V14.01,2013-02-27 06:12:00,
2013-02-27 01:17:00,39.2,28.1,29.71,East,90,13.9,13.9,64,0.05,,---,0.09,VWS V14.01,2013-02-27 06:17:00,
2013-02-27 01:20:00,39.2,28.1,29.71,East,90,9.6,20.6,64,0.09,,---,0.09,VWS V14.01,2013-02-27 06:20:00,
2013-02-27 01:23:00,39.4,28.6,29.71,ENE,68,10.7,17.5,65,0.05,,---,0.09,VWS V14.01,2013-02-27 06:23:00,
2013-02-27 01:28:00,39.4,28.6,29.71,NE,45,8.1,16.3,65,0.05,,---,0.09,VWS V14.01,2013-02-27 06:28:00,
2013-02-27 01:30:00,39.4,28.6,29.71,ESE,112,16.3,19.7,65,0.05,,---,0.09,VWS V14.01,2013-02-27 06:30:00,
2013-02-27 01:33:00,39.6,28.8,29.71,ENE,68,11.0,19.9,65,0.05,,---,0.09,VWS V14.01,2013-02-27 06:33:00,
2013-02-27 01:38:00,39.6,29.1,29.68,East,90,12.8,15.2,66,0.05,,---,0.09,VWS V14.01,2013-02-27 06:38:00,
2013-02-27 01:40:00,39.6,28.8,29.68,ESE,112,15.2,19.9,65,0.05,,---,0.09,VWS V14.01,2013-02-27 06:40:00,
2013-02-27 01:43:00,39.7,29.3,29.68,ENE,68,13.0,23.3,66,0.05,,---,0.09,VWS V14.01,2013-02-27 06:43:00,
2013-02-27 01:48:00,39.7,29.7,29.68,NE,45,6.5,13.6,67,0.05,,---,0.09,VWS V14.01,2013-02-27 06:48:00,
2013-02-27 01:50:00,39.7,29.7,29.68,ENE,68,10.3,23.3,67,0.05,,---,0.09,VWS V14.01,2013-02-27 06:50:00,
2013-02-27 01:53:00,39.9,29.9,29.68,East,90,8.1,15.4,67,0.05,,---,0.09,VWS V14.01,2013-02-27 06:53:00,
2013-02-27 01:58:00,39.9,30.2,29.68,ENE,68,9.8,12.8,68,0.05,,---,0.09,VWS V14.01,2013-02-27 06:58:00,
2013-02-27 02:00:00,39.9,30.2,29.68,ENE,68,7.6,22.4,68,0.05,,---,0.09,VWS V14.01,2013-02-27 07:00:00,
2013-02-27 02:03:00,40.3,30.6,29.68,ENE,68,9.2,21.9,68,0.05,,---,0.09,VWS V14.01,2013-02-27 07:03:00,
2013-02-27 02:08:00,40.3,30.6,29.68,ENE,68,5.6,13.9,68,0.00,,---,0.09,VWS V14.01,2013-02-27 07:08:00,
2013-02-27 02:10:00,40.3,30.6,29.68,ENE,68,12.5,21.9,68,0.05,,---,0.09,VWS V14.01,2013-02-27 07:10:00,
2013-02-27 02:14:00,40.5,30.8,29.68,ENE,68,12.3,15.7,68,0.00,,---,0.09,VWS V14.01,2013-02-27 07:14:00,
2013-02-27 02:19:00,40.5,30.8,29.68,ESE,112,11.0,14.5,68,0.00,,---,0.09,VWS V14.01,2013-02-27 07:19:00,
2013-02-27 02:20:00,40.5,30.8,29.68,East,90,14.5,16.8,68,0.00,,---,0.09,VWS V14.01,2013-02-27 07:20:00,
2013-02-27 02:24:00,40.5,31.1,29.68,ENE,68,8.7,14.5,69,0.00,,---,0.09,VWS V14.01,2013-02-27 07:24:00,
2013-02-27 02:29:00,40.6,30.9,29.68,ENE,68,10.1,15.4,68,0.00,,---,0.09,VWS V14.01,2013-02-27 07:29:00,
2013-02-27 02:30:00,40.5,30.8,29.68,East,90,12.3,14.5,68,0.00,,---,0.09,VWS V14.01,2013-02-27 07:30:00,
2013-02-27 02:34:00,40.6,31.3,29.68,NE,45,8.1,15.4,69,0.00,,---,0.09,VWS V14.01,2013-02-27 07:34:00,
2013-02-27 02:39:00,40.6,30.9,29.68,ENE,68,7.2,11.0,68,0.04,,---,0.13,VWS V14.01,2013-02-27 07:39:00,
2013-02-27 02:40:00,40.6,30.9,29.68,NE,45,10.1,15.4,68,0.00,,---,0.09,VWS V14.01,2013-02-27 07:40:00,
2013-02-27 02:44:00,40.5,30.8,29.68,East,90,10.3,15.2,68,0.04,,---,0.13,VWS V14.01,2013-02-27 07:44:00,
2013-02-27 02:50:00,40.5,30.8,29.68,NE,45,11.0,19.2,68,0.04,,---,0.13,VWS V14.01,2013-02-27 07:50:00,
2013-02-27 02:55:00,40.5,30.8,29.62,NE,45,7.2,19.2,68,0.04,,---,0.13,VWS V14.01,2013-02-27 07:55:00,
2013-02-27 03:00:00,40.5,30.8,29.62,ENE,68,16.3,16.6,68,0.04,,---,0.13,VWS V14.01,2013-02-27 08:00:00,
2013-02-27 03:05:00,40.5,30.8,29.62,ENE,68,8.7,16.6,68,0.04,,---,0.13,VWS V14.01,2013-02-27 08:05:00,
2013-02-27 03:10:00,40.5,30.8,29.62,NE,45,21.0,21.0,68,0.04,,---,0.13,VWS V14.01,2013-02-27 08:10:00,
2013-02-27 03:15:00,40.6,30.9,29.62,ENE,68,10.3,21.0,68,0.04,,---,0.13,VWS V14.01,2013-02-27 08:15:00,
2013-02-27 03:20:00,40.6,30.9,29.62,ENE,68,12.3,23.3,68,0.04,,---,0.13,VWS V14.01,2013-02-27 08:20:00,
2013-02-27 03:25:00,40.6,30.9,29.62,ENE,68,8.5,23.3,68,0.04,,---,0.13,VWS V14.01,2013-02-27 08:25:00,
2013-02-27 03:30:00,40.6,30.9,29.62,NNE,22,10.7,23.3,68,0.04,,---,0.13,VWS V14.01,2013-02-27 08:30:00,
2013-02-27 03:31:00,40.6,30.9,29.62,East,90,7.4,17.7,68,0.04,,---,0.13,VWS V14.01,2013-02-27 08:31:00,
2013-02-27 03:36:00,40.6,30.5,29.62,East,90,10.1,22.6,67,0.04,,---,0.13,VWS V14.01,2013-02-27 08:36:00,
2013-02-27 03:40:00,40.6,30.5,29.62,ENE,68,9.0,22.6,67,0.04,,---,0.13,VWS V14.01,2013-02-27 08:40:00,
2013-02-27 03:41:00,40.6,30.5,29.62,ENE,68,13.2,19.5,67,0.04,,---,0.13,VWS V14.01,2013-02-27 08:41:00,
2013-02-27 03:46:00,40.6,30.5,29.62,NE,45,16.6,19.5,67,0.04,,---,0.13,VWS V14.01,2013-02-27 08:46:00,
2013-02-27 03:50:00,40.6,30.5,29.62,East,90,12.5,19.5,67,0.04,,---,0.13,VWS V14.01,2013-02-27 08:50:00,
2013-02-27 03:51:00,40.6,30.5,29.59,NNE,22,7.6,21.3,67,0.00,,---,0.13,VWS V14.01,2013-02-27 08:51:00,
2013-02-27 03:56:00,40.6,30.5,29.59,NE,45,12.5,21.3,67,0.00,,---,0.13,VWS V14.01,2013-02-27 08:56:00,
2013-02-27 04:00:00,40.6,30.5,29.59,NE,45,12.5,21.3,67,0.00,,---,0.13,VWS V14.01,2013-02-27 09:00:00,
2013-02-27 04:01:00,40.8,30.7,29.59,ESE,112,12.1,21.9,67,0.00,,---,0.13,VWS V14.01,2013-02-27 09:01:00,
2013-02-27 04:06:00,41.0,30.9,29.59,NE,45,13.0,13.0,67,0.00,,---,0.13,VWS V14.01,2013-02-27 09:06:00,
2013-02-27 04:10:00,41.0,30.9,29.59,NE,45,13.0,23.7,67,0.00,,---,0.13,VWS V14.01,2013-02-27 09:10:00,
2013-02-27 04:11:00,41.0,30.9,29.59,ENE,68,11.0,20.1,67,0.00,,---,0.13,VWS V14.01,2013-02-27 09:11:00,
2013-02-27 04:17:00,41.0,30.9,29.59,ENE,68,8.7,10.5,67,0.00,,---,0.13,VWS V14.01,2013-02-27 09:17:00,
2013-02-27 04:20:00,41.0,30.9,29.59,East,90,10.5,20.4,67,0.00,,---,0.13,VWS V14.01,2013-02-27 09:20:00,
2013-02-27 04:22:00,41.2,31.1,29.56,ENE,68,10.3,17.0,67,0.00,,---,0.13,VWS V14.01,2013-02-27 09:22:00,
2013-02-27 04:27:00,41.2,31.4,29.56,East,90,23.3,23.3,68,0.00,,---,0.13,VWS V14.01,2013-02-27 09:27:00,
2013-02-27 04:30:00,41.2,31.4,29.56,ENE,68,13.2,17.0,68,0.00,,---,0.13,VWS V14.01,2013-02-27 09:30:00,
2013-02-27 04:32:00,41.4,31.2,29.56,NNE,22,10.1,23.3,67,0.04,,---,0.17,VWS V14.01,2013-02-27 09:32:00,
2013-02-27 04:37:00,41.5,31.8,29.56,NE,45,12.8,17.5,68,0.04,,---,0.17,VWS V14.01,2013-02-27 09:37:00,
2013-02-27 04:40:00,41.5,31.8,29.56,ENE,68,12.8,23.3,68,0.04,,---,0.17,VWS V14.01,2013-02-27 09:40:00,
2013-02-27 04:42:00,41.7,32.0,29.56,East,90,15.2,19.5,68,0.04,,---,0.17,VWS V14.01,2013-02-27 09:42:00,
2013-02-27 04:48:00,41.7,32.0,29.56,ENE,68,13.4,22.2,68,0.04,,---,0.17,VWS V14.01,2013-02-27 09:48:00,
2013-02-27 04:50:00,41.7,32.0,29.56,ESE,112,11.9,19.5,68,0.04,,---,0.17,VWS V14.01,2013-02-27 09:50:00,
2013-02-27 04:53:00,41.7,31.6,29.56,ESE,112,10.5,22.2,67,0.04,,---,0.17,VWS V14.01,2013-02-27 09:53:00,
2013-02-27 04:58:00,41.9,32.1,29.56,East,90,6.5,15.2,68,0.04,,---,0.17,VWS V14.01,2013-02-27 09:58:00,
2013-02-27 05:00:00,41.9,32.1,29.56,ENE,68,7.4,22.2,68,0.04,,---,0.17,VWS V14.01,2013-02-27 10:00:00,
2013-02-27 05:03:00,41.9,32.1,29.56,East,90,7.2,15.4,68,0.04,,---,0.17,VWS V14.01,2013-02-27 10:03:00,
2013-02-27 05:08:00,41.9,32.1,29.53,East,90,8.7,9.4,68,0.04,,---,0.17,VWS V14.01,2013-02-27 10:08:00,
2013-02-27 05:10:00,41.9,32.1,29.53,ENE,68,9.4,15.4,68,0.04,,---,0.17,VWS V14.01,2013-02-27 10:10:00,
2013-02-27 05:13:00,41.9,32.1,29.53,ENE,68,9.0,20.1,68,0.04,,---,0.17,VWS V14.01,2013-02-27 10:13:00,
2013-02-27 05:18:00,41.9,32.1,29.53,ENE,68,9.6,17.5,68,0.04,,---,0.17,VWS V14.01,2013-02-27 10:18:00,
2013-02-27 05:20:00,41.9,32.1,29.53,NE,45,15.7,20.1,68,0.04,,---,0.17,VWS V14.01,2013-02-27 10:20:00,
2013-02-27 05:23:00,41.9,32.5,29.56,ENE,68,12.3,20.8,69,0.04,,---,0.17,VWS V14.01,2013-02-27 10:23:00,
2013-02-27 05:29:00,41.9,32.5,29.56,East,90,8.1,18.8,69,0.04,,---,0.17,VWS V14.01,2013-02-27 10:29:00,
2013-02-27 05:30:00,41.9,32.5,29.56,ENE,68,8.5,20.8,69,0.04,,---,0.17,VWS V14.01,2013-02-27 10:30:00,
2013-02-27 05:34:00,41.9,32.5,29.56,ENE,68,6.3,18.8,69,0.04,,---,0.17,VWS V14.01,2013-02-27 10:34:00,
2013-02-27 05:39:00,41.9,32.5,29.56,ENE,68,10.7,15.2,69,0.00,,---,0.17,VWS V14.01,2013-02-27 10:39:00,
2013-02-27 05:40:00,41.9,32.5,29.56,East,90,12.8,18.8,69,0.04,,---,0.17,VWS V14.01,2013-02-27 10:40:00,
2013-02-27 05:44:00,41.9,32.8,29.56,ENE,68,7.6,15.2,70,0.00,,---,0.17,VWS V14.01,2013-02-27 10:44:00,
2013-02-27 05:49:00,42.1,33.0,29.56,East,90,6.3,12.5,70,0.00,,---,0.17,VWS V14.01,2013-02-27 10:49:00,
2013-02-27 05:50:00,41.9,32.8,29.56,East,90,5.8,15.2,70,0.00,,---,0.17,VWS V14.01,2013-02-27 10:50:00,
2013-02-27 05:54:00,42.1,33.0,29.56,ENE,68,10.5,17.9,70,0.00,,---,0.17,VWS V14.01,2013-02-27 10:54:00,
2013-02-27 06:00:00,41.9,32.8,29.56,ENE,68,10.5,13.6,70,0.00,,---,0.17,VWS V14.01,2013-02-27 11:00:00,
2013-02-27 06:05:00,41.9,32.8,29.56,ENE,68,8.7,14.5,70,0.00,,---,0.17,VWS V14.01,2013-02-27 11:05:00,
2013-02-27 06:10:00,41.9,32.8,29.56,East,90,8.1,17.2,70,0.00,,---,0.17,VWS V14.01,2013-02-27 11:10:00,
2013-02-27 06:15:00,41.9,32.8,29.56,ENE,68,15.2,20.8,70,0.00,,---,0.17,VWS V14.01,2013-02-27 11:15:00,
2013-02-27 06:20:00,41.7,32.7,29.56,ENE,68,7.4,15.4,70,0.00,,---,0.17,VWS V14.01,2013-02-27 11:20:00,
2013-02-27 06:25:00,41.7,32.7,29.53,ENE,68,11.2,17.2,70,0.00,,---,0.17,VWS V14.01,2013-02-27 11:25:00,
2013-02-27 06:30:00,41.7,33.0,29.53,East,90,10.7,20.4,71,0.00,,---,0.17,VWS V14.01,2013-02-27 11:30:00,
2013-02-27 06:35:00,41.7,33.0,29.53,ENE,68,16.1,22.4,71,0.00,,---,0.17,VWS V14.01,2013-02-27 11:35:00,
2013-02-27 06:40:00,41.7,33.0,29.50,NE,45,10.1,15.4,71,0.00,,---,0.17,VWS V14.01,2013-02-27 11:40:00,
2013-02-27 06:45:00,41.7,33.4,29.50,ENE,68,13.0,15.9,72,0.00,,---,0.17,VWS V14.01,2013-02-27 11:45:00,
2013-02-27 06:50:00,41.9,33.5,29.50,East,90,5.8,18.1,72,0.00,,---,0.17,VWS V14.01,2013-02-27 11:50:00,
2013-02-27 06:55:00,41.9,33.9,29.50,ENE,68,12.3,18.1,73,0.00,,---,0.17,VWS V14.01,2013-02-27 11:55:00,
2013-02-27 07:00:00,42.1,34.1,29.50,ENE,68,9.6,14.8,73,0.00,,---,0.17,VWS V14.01,2013-02-27 12:00:00,
2013-02-27 07:05:00,42.1,34.1,29.50,ENE,68,5.4,18.6,73,0.00,,---,0.17,VWS V14.01,2013-02-27 12:05:00,
2013-02-27 07:10:00,42.1,34.1,29.50,ENE,68,10.5,18.6,73,0.00,,---,0.17,VWS V14.01,2013-02-27 12:10:00,
2013-02-27 07:11:00,42.3,34.6,29.50,NE,45,8.7,14.5,74,0.00,,---,0.17,VWS V14.01,2013-02-27 12:11:00,
2013-02-27 07:16:00,42.3,34.6,29.50,ENE,68,4.3,14.5,74,0.00,,---,0.17,VWS V14.01,2013-02-27 12:16:00,
2013-02-27 07:20:00,42.3,34.6,29.50,East,90,5.8,14.5,74,0.00,,---,0.17,VWS V14.01,2013-02-27 12:20:00,
2013-02-27 07:21:00,42.4,34.8,29.50,NE,45,11.2,16.6,74,0.00,,---,0.17,VWS V14.01,2013-02-27 12:21:00,
2013-02-27 07:26:00,42.8,35.1,29.53,East,90,4.9,16.6,74,0.00,,---,0.17,VWS V14.01,2013-02-27 12:26:00,
2013-02-27 07:30:00,42.8,35.1,29.53,ENE,68,8.7,16.6,74,0.00,,---,0.17,VWS V14.01,2013-02-27 12:30:00,
2013-02-27 07:31:00,43.0,35.6,29.53,East,90,6.0,15.2,75,0.00,,---,0.17,VWS V14.01,2013-02-27 12:31:00,
2013-02-27 07:36:00,43.2,35.8,29.47,NE,45,12.8,15.2,75,0.00,,---,0.17,VWS V14.01,2013-02-27 12:36:00,
2013-02-27 07:40:00,43.2,35.8,29.47,East,90,11.0,15.2,75,0.00,,---,0.17,VWS V14.01,2013-02-27 12:40:00,
2013-02-27 07:41:00,43.3,36.0,29.47,NE,45,7.6,12.3,75,0.00,,---,0.17,VWS V14.01,2013-02-27 12:41:00,
2013-02-27 07:46:00,43.5,36.1,29.47,East,90,4.7,4.9,75,0.00,,---,0.17,VWS V14.01,2013-02-27 12:46:00,
2013-02-27 07:50:00,43.5,36.1,29.47,ENE,68,4.9,15.2,75,0.00,,---,0.17,VWS V14.01,2013-02-27 12:50:00,
2013-02-27 07:51:00,43.7,36.6,29.50,ENE,68,10.1,12.3,76,0.00,,---,0.17,VWS V14.01,2013-02-27 12:51:00,
2013-02-27 07:56:00,43.9,36.8,29.50,NE,45,4.0,12.3,76,0.00,,---,0.17,VWS V14.01,2013-02-27 12:56:00,
2013-02-27 08:00:00,43.9,36.8,29.50,NE,45,4.0,12.3,76,0.00,,---,0.17,VWS V14.01,2013-02-27 13:00:00,
2013-02-27 08:01:00,44.1,37.0,29.50,NE,45,9.4,10.1,76,0.00,,---,0.17,VWS V14.01,2013-02-27 13:01:00,
2013-02-27 08:07:00,44.2,37.2,29.47,ENE,68,6.0,10.5,76,0.00,,---,0.17,VWS V14.01,2013-02-27 13:07:00,
2013-02-27 08:10:00,44.2,37.2,29.47,ENE,68,10.5,15.4,76,0.00,,---,0.17,VWS V14.01,2013-02-27 13:10:00,
2013-02-27 08:12:00,44.4,37.7,29.47,ENE,68,15.4,15.4,77,0.00,,---,0.17,VWS V14.01,2013-02-27 13:12:00,
2013-02-27 08:17:00,44.6,37.5,29.47,East,90,5.4,10.3,76,0.00,,---,0.17,VWS V14.01,2013-02-27 13:17:00,
2013-02-27 08:20:00,44.6,37.5,29.47,ENE,68,3.6,15.4,76,0.00,,---,0.17,VWS V14.01,2013-02-27 13:20:00,
2013-02-27 08:22:00,44.8,37.7,29.53,NE,45,4.3,11.0,76,0.00,,---,0.17,VWS V14.01,2013-02-27 13:22:00,
2013-02-27 08:27:00,44.8,37.7,29.53,SE,135,4.0,4.9,76,0.00,,---,0.17,VWS V14.01,2013-02-27 13:27:00,
2013-02-27 08:30:00,44.8,37.7,29.53,ENE,68,4.9,11.0,76,0.00,,---,0.17,VWS V14.01,2013-02-27 13:30:00,
2013-02-27 08:32:00,45.0,38.2,29.53,North,0,4.3,6.5,77,0.00,,---,0.17,VWS V14.01,2013-02-27 13:32:00,
2013-02-27 08:37:00,45.1,38.4,29.50,NNE,22,4.0,7.8,77,0.00,,---,0.17,VWS V14.01,2013-02-27 13:37:00,
2013-02-27 08:40:00,45.1,38.4,29.50,NE,45,7.8,7.8,77,0.00,,---,0.17,VWS V14.01,2013-02-27 13:40:00,
2013-02-27 08:42:00,45.1,38.4,29.50,NE,45,2.9,7.8,77,0.00,,---,0.17,VWS V14.01,2013-02-27 13:42:00,
2013-02-27 08:47:00,45.3,38.5,29.50,SSE,158,4.0,4.0,77,0.00,,---,0.17,VWS V14.01,2013-02-27 13:47:00,
2013-02-27 08:50:00,45.3,38.5,29.50,SE,135,1.6,7.8,77,0.00,,---,0.17,VWS V14.01,2013-02-27 13:50:00,
2013-02-27 08:53:00,45.3,38.5,29.47,NE,45,3.4,4.0,77,0.04,,---,0.21,VWS V14.01,2013-02-27 13:53:00,
2013-02-27 08:58:00,45.5,38.7,29.47,NNE,22,6.3,7.8,77,0.04,,---,0.21,VWS V14.01,2013-02-27 13:58:00,
2013-02-27 09:00:00,45.3,38.5,29.47,NNE,22,1.6,4.3,77,0.04,,---,0.21,VWS V14.01,2013-02-27 14:00:00,
2013-02-27 09:03:00,45.5,38.7,29.47,East,90,2.9,7.8,77,0.04,,---,0.21,VWS V14.01,2013-02-27 14:03:00,
2013-02-27 09:08:00,45.5,38.7,29.50,East,90,2.7,4.3,77,0.04,,---,0.21,VWS V14.01,2013-02-27 14:08:00,
2013-02-27 09:10:00,45.5,38.7,29.50,East,90,3.8,7.8,77,0.04,,---,0.21,VWS V14.01,2013-02-27 14:10:00,
2013-02-27 09:13:00,45.7,38.9,29.50,ENE,68,3.1,6.3,77,0.04,,---,0.21,VWS V14.01,2013-02-27 14:13:00,
2013-02-27 09:18:00,45.5,38.7,29.50,ENE,68,4.9,10.5,77,0.04,,---,0.21,VWS V14.01,2013-02-27 14:18:00,
2013-02-27 09:20:00,45.7,38.9,29.50,NNE,22,2.7,6.3,77,0.04,,---,0.21,VWS V14.01,2013-02-27 14:20:00,
2013-02-27 09:23:00,45.7,38.9,29.50,ENE,68,2.5,10.5,77,0.04,,---,0.21,VWS V14.01,2013-02-27 14:23:00,
2013-02-27 09:29:00,45.9,39.1,29.50,East,90,2.9,4.9,77,0.04,,---,0.21,VWS V14.01,2013-02-27 14:29:00,
2013-02-27 09:30:00,45.9,39.1,29.50,ENE,68,2.7,10.5,77,0.04,,---,0.21,VWS V14.01,2013-02-27 14:30:00,
2013-02-27 09:34:00,45.9,39.1,29.50,East,90,4.0,9.8,77,0.04,,---,0.21,VWS V14.01,2013-02-27 14:34:00,
2013-02-27 09:39:00,46.0,39.2,29.50,ENE,68,4.0,5.6,77,0.04,,---,0.21,VWS V14.01,2013-02-27 14:39:00,
2013-02-27 09:40:00,46.0,39.2,29.50,NNW,338,3.1,9.8,77,0.04,,---,0.21,VWS V14.01,2013-02-27 14:40:00,
2013-02-27 09:44:00,46.0,39.2,29.50,East,90,2.2,5.6,77,0.04,,---,0.21,VWS V14.01,2013-02-27 14:44:00,
2013-02-27 09:49:00,46.0,39.2,29.50,ESE,112,2.0,3.4,77,0.04,,---,0.21,VWS V14.01,2013-02-27 14:49:00,
2013-02-27 09:50:00,46.0,39.2,29.50,East,90,2.0,5.6,77,0.04,,---,0.21,VWS V14.01,2013-02-27 14:50:00,
2013-02-27 09:54:00,46.0,39.2,29.50,NE,45,2.7,5.6,77,0.04,,---,0.21,VWS V14.01,2013-02-27 14:54:00,
2013-02-27 09:59:00,46.0,39.2,29.50,ENE,68,2.7,5.4,77,0.00,,---,0.21,VWS V14.01,2013-02-27 14:59:00,
2013-02-27 10:00:00,46.0,39.2,29.50,NE,45,3.6,5.6,77,0.04,,---,0.21,VWS V14.01,2013-02-27 15:00:00,
2013-02-27 10:04:00,46.0,38.9,29.50,ENE,68,3.4,5.8,76,0.00,,---,0.21,VWS V14.01,2013-02-27 15:04:00,
2013-02-27 10:10:00,46.2,39.1,29.50,NE,45,1.6,3.6,76,0.00,,---,0.21,VWS V14.01,2013-02-27 15:10:00,
2013-02-27 10:15:00,46.4,39.3,29.50,ENE,68,1.6,4.7,76,0.00,,---,0.21,VWS V14.01,2013-02-27 15:15:00,
2013-02-27 10:20:00,46.4,39.3,29.50,North,0,1.6,2.9,76,0.00,,---,0.21,VWS V14.01,2013-02-27 15:20:00,
2013-02-27 10:25:00,46.4,39.3,29.50,ENE,68,3.4,3.4,76,0.00,,---,0.21,VWS V14.01,2013-02-27 15:25:00,
2013-02-27 10:30:00,46.6,39.4,29.50,East,90,2.7,3.1,76,0.00,,---,0.21,VWS V14.01,2013-02-27 15:30:00,
2013-02-27 10:35:00,46.8,39.9,29.50,SW,225,0.0,3.1,77,0.00,,---,0.21,VWS V14.01,2013-02-27 15:35:00,
2013-02-27 10:40:00,47.1,40.3,29.50,East,90,1.6,1.6,77,0.00,,---,0.21,VWS V14.01,2013-02-27 15:40:00,
2013-02-27 10:45:00,46.9,40.1,29.50,East,90,0.0,1.6,77,0.00,,---,0.21,VWS V14.01,2013-02-27 15:45:00,
2013-02-27 10:50:00,47.3,40.5,29.50,SE,135,0.0,0.0,77,0.00,,---,0.21,VWS V14.01,2013-02-27 15:50:00,
2013-02-27 10:56:00,47.5,40.6,29.50,SW,225,0.0,1.3,77,0.00,,---,0.21,VWS V14.01,2013-02-27 15:56:00,
2013-02-27 11:00:00,47.5,40.6,29.50,SW,225,0.0,1.3,77,0.00,,---,0.21,VWS V14.01,2013-02-27 16:00:00,
2013-02-27 11:01:00,47.7,41.2,29.50,SW,225,0.9,1.6,78,0.00,,---,0.21,VWS V14.01,2013-02-27 16:01:00,
2013-02-27 11:06:00,47.8,41.3,29.50,SW,225,0.0,2.0,78,0.00,,---,0.21,VWS V14.01,2013-02-27 16:06:00,
2013-02-27 11:10:00,47.8,41.3,29.50,SW,225,0.0,2.0,78,0.00,,---,0.21,VWS V14.01,2013-02-27 16:10:00,
2013-02-27 11:11:00,48.2,41.3,29.50,SW,225,0.0,2.0,77,0.00,,---,0.21,VWS V14.01,2013-02-27 16:11:00,
2013-02-27 11:16:00,48.2,41.3,29.50,NW,315,1.3,3.8,77,0.00,,---,0.21,VWS V14.01,2013-02-27 16:16:00,
2013-02-27 11:20:00,48.2,41.3,29.50,NW,315,1.3,3.8,77,0.00,,---,0.21,VWS V14.01,2013-02-27 16:20:00,
2013-02-27 11:21:00,48.0,40.8,29.53,WNW,292,4.0,4.9,76,0.00,,---,0.21,VWS V14.01,2013-02-27 16:21:00,
2013-02-27 11:26:00,47.8,40.0,29.53,WNW,292,2.5,6.0,74,0.00,,---,0.21,VWS V14.01,2013-02-27 16:26:00,
2013-02-27 11:30:00,47.8,40.0,29.53,WNW,292,2.5,6.0,74,0.00,,---,0.21,VWS V14.01,2013-02-27 16:30:00,
2013-02-27 11:31:00,47.7,39.8,29.53,West,270,4.9,10.3,74,0.00,,---,0.21,VWS V14.01,2013-02-27 16:31:00,
2013-02-27 11:36:00,47.3,39.1,29.56,WNW,292,8.1,8.1,73,0.00,,---,0.21,VWS V14.01,2013-02-27 16:36:00,
2013-02-27 11:40:00,47.5,39.3,29.56,West,270,5.6,10.5,73,0.00,,---,0.21,VWS V14.01,2013-02-27 16:40:00,
2013-02-27 11:41:00,46.6,36.6,29.56,WNW,292,12.1,12.5,68,0.00,,---,0.21,VWS V14.01,2013-02-27 16:41:00,
2013-02-27 11:47:00,46.2,35.5,29.56,WNW,292,10.3,13.0,66,0.00,,---,0.21,VWS V14.01,2013-02-27 16:47:00,
2013-02-27 11:50:00,46.4,35.7,29.56,West,270,5.8,15.4,66,0.00,,---,0.21,VWS V14.01,2013-02-27 16:50:00,
2013-02-27 11:52:00,45.9,34.8,29.56,West,270,12.1,17.5,65,0.00,,---,0.21,VWS V14.01,2013-02-27 16:52:00,
2013-02-27 11:57:00,45.9,33.2,29.56,North,0,4.0,8.1,61,0.00,,---,0.21,VWS V14.01,2013-02-27 16:57:00,
2013-02-27 12:00:00,45.9,32.8,29.56,NW,315,8.1,17.5,60,0.00,,---,0.21,VWS V14.01,2013-02-27 17:00:00,
2013-02-27 12:02:00,46.0,34.2,29.56,WNW,292,6.0,12.1,63,0.00,,---,0.21,VWS V14.01,2013-02-27 17:02:00,
2013-02-27 12:07:00,46.8,36.4,29.56,WNW,292,4.0,7.2,67,0.00,,---,0.21,VWS V14.01,2013-02-27 17:07:00,
2013-02-27 12:10:00,46.4,35.7,29.56,NW,315,4.3,12.1,66,0.00,,---,0.21,VWS V14.01,2013-02-27 17:10:00,
2013-02-27 12:12:00,47.3,37.3,29.56,WNW,292,5.6,12.8,68,0.00,,---,0.21,VWS V14.01,2013-02-27 17:12:00,
2013-02-27 12:17:00,47.1,32.7,29.56,NW,315,2.7,8.7,57,0.00,,---,0.21,VWS V14.01,2013-02-27 17:17:00,
2013-02-27 12:20:00,47.1,33.1,29.56,NW,315,7.8,13.2,58,0.00,,---,0.21,VWS V14.01,2013-02-27 17:20:00,
2013-02-27 12:22:00,47.1,29.0,29.56,West,270,6.5,14.3,49,0.00,,---,0.21,VWS V14.01,2013-02-27 17:22:00,
2013-02-27 12:27:00,47.7,28.4,29.56,WNW,292,6.7,13.2,47,0.00,,---,0.21,VWS V14.01,2013-02-27 17:27:00,
2013-02-27 12:30:00,47.3,28.1,29.56,NNW,338,12.8,15.2,47,0.00,,---,0.21,VWS V14.01,2013-02-27 17:30:00,
2013-02-27 12:33:00,48.4,28.0,29.56,WNW,292,3.4,13.4,45,0.00,,---,0.21,VWS V14.01,2013-02-27 17:33:00,
2013-02-27 12:38:00,48.7,25.5,29.53,WNW,292,6.9,11.0,40,0.00,,---,0.21,VWS V14.01,2013-02-27 17:38:00,
2013-02-27 12:40:00,48.6,26.0,29.53,WNW,292,11.0,13.4,41,0.00,,---,0.21,VWS V14.01,2013-02-27 17:40:00,
2013-02-27 12:43:00,48.9,23.8,29.53,NW,315,11.0,17.7,37,0.00,,---,0.21,VWS V14.01,2013-02-27 17:43:00,
2013-02-27 12:48:00,49.6,23.8,29.53,NW,315,9.8,13.4,36,0.04,,---,0.25,VWS V14.01,2013-02-27 17:48:00,
2013-02-27 12:50:00,49.3,24.1,29.53,WNW,292,7.8,17.7,37,0.04,,---,0.25,VWS V14.01,2013-02-27 17:50:00,
2013-02-27 12:53:00,49.8,21.9,29.53,WNW,292,12.3,23.3,33,0.04,,---,0.25,VWS V14.01,2013-02-27 17:53:00,
2013-02-27 12:58:00,49.3,19.9,29.53,NW,315,7.8,15.9,31,0.04,,---,0.25,VWS V14.01,2013-02-27 17:58:00,
2013-02-27 13:00:00,49.3,19.9,29.53,WNW,292,15.9,23.3,31,0.04,,---,0.25,VWS V14.01,2013-02-27 18:00:00,
2013-02-27 13:03:00,48.9,18.1,29.53,NNW,338,12.8,22.8,29,0.04,,---,0.25,VWS V14.01,2013-02-27 18:03:00,
2013-02-27 13:08:00,48.7,18.7,29.53,West,270,12.1,17.0,30,0.04,,---,0.25,VWS V14.01,2013-02-27 18:08:00,
2013-02-27 13:10:00,48.9,18.1,29.53,NW,315,10.7,22.8,29,0.04,,---,0.25,VWS V14.01,2013-02-27 18:10:00,
2013-02-27 13:13:00,48.7,17.9,29.53,NNW,338,12.5,20.6,29,0.04,,---,0.25,VWS V14.01,2013-02-27 18:13:00,
2013-02-27 13:19:00,49.5,19.3,29.53,NW,315,8.1,12.5,30,0.04,,---,0.25,VWS V14.01,2013-02-27 18:19:00,
2013-02-27 13:20:00,48.9,18.1,29.53,NW,315,12.5,20.6,29,0.04,,---,0.25,VWS V14.01,2013-02-27 18:20:00,
2013-02-27 13:24:00,49.8,18.0,29.56,WNW,292,8.7,19.2,28,0.04,,---,0.25,VWS V14.01,2013-02-27 18:24:00,
2013-02-27 13:29:00,50.4,18.5,29.56,WSW,248,4.9,13.0,28,0.04,,---,0.25,VWS V14.01,2013-02-27 18:29:00,
2013-02-27 13:30:00,50.4,18.5,29.56,NW,315,7.8,19.2,28,0.04,,---,0.25,VWS V14.01,2013-02-27 18:30:00,
2013-02-27 13:34:00,50.7,18.0,29.56,NNW,338,10.5,15.7,27,0.04,,---,0.25,VWS V14.01,2013-02-27 18:34:00,
2013-02-27 13:39:00,50.9,18.1,29.56,NNW,338,6.5,14.5,27,0.04,,---,0.25,VWS V14.01,2013-02-27 18:39:00,
2013-02-27 13:40:00,50.4,17.7,29.56,WNW,292,8.1,15.7,27,0.04,,---,0.25,VWS V14.01,2013-02-27 18:40:00,
2013-02-27 13:44:00,50.2,17.5,29.56,SW,225,8.7,16.8,27,0.04,,---,0.25,VWS V14.01,2013-02-27 18:44:00,
2013-02-27 13:49:00,49.5,16.9,29.56,NW,315,11.2,17.2,27,0.00,,---,0.25,VWS V14.01,2013-02-27 18:49:00,
2013-02-27 13:50:00,49.8,18.0,29.56,West,270,8.7,16.8,28,0.04,,---,0.25,VWS V14.01,2013-02-27 18:50:00,
2013-02-27 13:54:00,49.6,17.9,29.56,NNW,338,11.0,17.2,28,0.00,,---,0.25,VWS V14.01,2013-02-27 18:54:00,
2013-02-27 13:59:00,49.8,18.0,29.56,NW,315,7.8,8.1,28,0.00,,---,0.25,VWS V14.01,2013-02-27 18:59:00,
2013-02-27 14:00:00,49.6,17.9,29.56,NW,315,6.5,17.2,28,0.00,,---,0.25,VWS V14.01,2013-02-27 19:00:00,
2013-02-27 14:04:00,49.8,17.2,29.56,West,270,15.2,18.1,27,0.00,,---,0.25,VWS V14.01,2013-02-27 19:04:00,
2013-02-27 14:10:00,50.5,17.8,29.56,NNW,338,15.2,19.9,27,0.00,,---,0.25,VWS V14.01,2013-02-27 19:10:00,
2013-02-27 14:15:00,50.7,18.0,29.56,West,270,12.3,19.9,27,0.00,,---,0.25,VWS V14.01,2013-02-27 19:15:00,
2013-02-27 14:20:00,50.4,17.7,29.56,NNW,338,7.4,14.3,27,0.00,,---,0.25,VWS V14.01,2013-02-27 19:20:00,
2013-02-27 14:25:00,49.8,17.2,29.56,NW,315,10.1,24.4,27,0.00,,---,0.25,VWS V14.01,2013-02-27 19:25:00,
2013-02-27 14:30:00,49.3,16.7,29.56,NNW,338,6.0,17.0,27,0.00,,---,0.25,VWS V14.01,2013-02-27 19:30:00,
2013-02-27 14:35:00,49.1,16.6,29.56,NW,315,7.6,17.0,27,0.00,,---,0.25,VWS V14.01,2013-02-27 19:35:00,
2013-02-27 14:40:00,48.7,16.3,29.56,West,270,6.0,16.3,27,0.00,,---,0.25,VWS V14.01,2013-02-27 19:40:00,
2013-02-27 14:45:00,48.7,16.3,29.56,WNW,292,16.3,16.3,27,0.00,,---,0.25,VWS V14.01,2013-02-27 19:45:00,
2013-02-27 14:50:00,48.7,16.3,29.56,West,270,7.8,13.0,27,0.00,,---,0.25,VWS V14.01,2013-02-27 19:50:00,
2013-02-27 14:56:00,48.7,16.3,29.56,West,270,10.3,13.0,27,0.00,,---,0.25,VWS V14.01,2013-02-27 19:56:00,
2013-02-27 15:00:00,48.7,16.3,29.56,West,270,8.7,13.0,27,0.00,,---,0.25,VWS V14.01,2013-02-27 20:00:00,
2013-02-27 15:01:00,48.6,16.1,29.56,NNW,338,7.4,13.2,27,0.00,,---,0.25,VWS V14.01,2013-02-27 20:01:00,
2013-02-27 15:06:00,48.4,16.0,29.59,West,270,11.4,13.2,27,0.00,,---,0.25,VWS V14.01,2013-02-27 20:06:00,
2013-02-27 15:10:00,48.4,16.0,29.59,NW,315,14.5,14.5,27,0.00,,---,0.25,VWS V14.01,2013-02-27 20:10:00,
2013-02-27 15:11:00,48.2,15.8,29.59,WNW,292,5.4,14.5,27,0.00,,---,0.25,VWS V14.01,2013-02-27 20:11:00,
2013-02-27 15:16:00,48.2,15.8,29.59,NW,315,7.2,14.5,27,0.00,,---,0.25,VWS V14.01,2013-02-27 20:16:00,
2013-02-27 15:20:00,48.2,15.8,29.59,NW,315,7.2,14.5,27,0.00,,---,0.25,VWS V14.01,2013-02-27 20:20:00,
2013-02-27 15:21:00,48.2,15.8,29.59,WSW,248,10.5,15.4,27,0.00,,---,0.25,VWS V14.01,2013-02-27 20:21:00,
2013-02-27 15:26:00,48.4,16.0,29.59,WNW,292,8.1,8.1,27,0.00,,---,0.25,VWS V14.01,2013-02-27 20:26:00,
2013-02-27 15:30:00,48.4,16.0,29.59,NW,315,8.1,15.4,27,0.00,,---,0.25,VWS V14.01,2013-02-27 20:30:00,
2013-02-27 15:31:00,48.4,16.0,29.59,WSW,248,10.3,14.3,27,0.00,,---,0.25,VWS V14.01,2013-02-27 20:31:00,
2013-02-27 15:36:00,48.4,16.0,29.59,NW,315,4.9,4.9,27,0.00,,---,0.25,VWS V14.01,2013-02-27 20:36:00,
2013-02-27 15:40:00,48.4,16.0,29.59,West,270,3.4,14.5,27,0.00,,---,0.25,VWS V14.01,2013-02-27 20:40:00,
2013-02-27 15:42:00,48.4,16.0,29.59,West,270,4.3,12.8,27,0.00,,---,0.25,VWS V14.01,2013-02-27 20:42:00,
2013-02-27 15:47:00,48.4,16.0,29.59,WNW,292,8.7,8.7,27,0.00,,---,0.25,VWS V14.01,2013-02-27 20:47:00,
2013-02-27 15:50:00,48.4,16.0,29.59,WNW,292,8.7,12.8,27,0.00,,---,0.25,VWS V14.01,2013-02-27 20:50:00,
2013-02-27 15:52:00,48.4,16.0,29.59,North,0,5.4,14.8,27,0.00,,---,0.25,VWS V14.01,2013-02-27 20:52:00,
2013-02-27 15:57:00,48.6,16.1,29.59,West,270,3.1,6.5,27,0.00,,---,0.25,VWS V14.01,2013-02-27 20:57:00,
2013-02-27 16:00:00,48.6,16.1,29.59,West,270,5.4,14.8,27,0.00,,---,0.25,VWS V14.01,2013-02-27 21:00:00,
2013-02-27 16:02:00,48.6,16.1,29.59,WNW,292,6.0,7.6,27,0.00,,---,0.25,VWS V14.01,2013-02-27 21:02:00,
2013-02-27 16:07:00,48.6,16.1,29.59,WNW,292,6.7,6.7,27,0.00,,---,0.25,VWS V14.01,2013-02-27 21:07:00,
2013-02-27 16:10:00,48.6,16.1,29.59,West,270,6.0,10.3,27,0.00,,---,0.25,VWS V14.01,2013-02-27 21:10:00,
2013-02-27 16:12:00,48.6,16.1,29.59,WNW,292,5.6,11.4,27,0.00,,---,0.25,VWS V14.01,2013-02-27 21:12:00,
2013-02-27 16:17:00,48.6,16.1,29.59,NW,315,5.4,7.2,27,0.00,,---,0.25,VWS V14.01,2013-02-27 21:17:00,
2013-02-27 16:20:00,48.6,16.1,29.59,WNW,292,6.3,11.4,27,0.00,,---,0.25,VWS V14.01,2013-02-27 21:20:00,
2013-02-27 16:22:00,48.6,16.1,29.59,NW,315,2.7,9.8,27,0.00,,---,0.25,VWS V14.01,2013-02-27 21:22:00,
2013-02-27 16:28:00,48.6,16.1,29.59,NW,315,3.1,8.5,27,0.00,,---,0.25,VWS V14.01,2013-02-27 21:28:00,
2013-02-27 16:30:00,48.4,16.0,29.59,NW,315,8.5,12.3,27,0.00,,---,0.25,VWS V14.01,2013-02-27 21:30:00,
2013-02-27 16:33:00,48.6,16.1,29.59,West,270,4.9,12.3,27,0.00,,---,0.25,VWS V14.01,2013-02-27 21:33:00,
2013-02-27 16:38:00,48.6,16.1,29.62,WNW,292,6.3,10.3,27,0.00,,---,0.25,VWS V14.01,2013-02-27 21:38:00,
2013-02-27 16:40:00,48.6,16.1,29.62,WNW,292,2.5,12.3,27,0.00,,---,0.25,VWS V14.01,2013-02-27 21:40:00,
2013-02-27 16:43:00,48.6,16.1,29.62,WSW,248,3.8,10.3,27,0.00,,---,0.25,VWS V14.01,2013-02-27 21:43:00,
2013-02-27 16:48:00,48.6,16.1,29.62,West,270,4.9,5.8,27,0.00,,---,0.25,VWS V14.01,2013-02-27 21:48:00,
2013-02-27 16:50:00,48.6,16.1,29.62,West,270,5.8,10.3,27,0.00,,---,0.25,VWS V14.01,2013-02-27 21:50:00,
2013-02-27 16:53:00,48.6,16.1,29.59,SW,225,4.5,8.5,27,0.00,,---,0.25,VWS V14.01,2013-02-27 21:53:00,
2013-02-27 16:58:00,48.6,16.1,29.59,WNW,292,4.3,7.8,27,0.00,,---,0.25,VWS V14.01,2013-02-27 21:58:00,
2013-02-27 17:00:00,48.6,16.1,29.59,WNW,292,2.2,8.5,27,0.00,,---,0.25,VWS V14.01,2013-02-27 22:00:00,
2013-02-27 17:04:00,48.4,16.0,29.59,WSW,248,3.4,7.8,27,0.00,,---,0.25,VWS V14.01,2013-02-27 22:04:00,
2013-02-27 17:09:00,48.4,16.0,29.62,WNW,292,2.0,7.6,27,0.00,,---,0.25,VWS V14.01,2013-02-27 22:09:00,
2013-02-27 17:10:00,48.4,16.0,29.62,West,270,6.0,7.8,27,0.00,,---,0.25,VWS V14.01,2013-02-27 22:10:00,
2013-02-27 17:14:00,48.4,16.0,29.62,WNW,292,2.5,7.6,27,0.00,,---,0.25,VWS V14.01,2013-02-27 22:14:00,
2013-02-27 17:19:00,48.2,15.8,29.62,NW,315,4.9,5.6,27,0.00,,---,0.25,VWS V14.01,2013-02-27 22:19:00,
2013-02-27 17:20:00,48.2,15.8,29.62,WNW,292,2.0,7.6,27,0.00,,---,0.25,VWS V14.01,2013-02-27 22:20:00,
2013-02-27 17:24:00,48.2,15.8,29.62,West,270,6.3,6.5,27,0.00,,---,0.25,VWS V14.01,2013-02-27 22:24:00,
2013-02-27 17:29:00,48.0,15.6,29.62,NW,315,3.4,5.4,27,0.00,,---,0.25,VWS V14.01,2013-02-27 22:29:00,
2013-02-27 17:30:00,48.2,15.8,29.62,WNW,292,3.4,6.5,27,0.00,,---,0.25,VWS V14.01,2013-02-27 22:30:00,
2013-02-27 17:34:00,47.8,15.5,29.62,West,270,1.6,5.4,27,0.00,,---,0.25,VWS V14.01,2013-02-27 22:34:00,
2013-02-27 17:39:00,47.7,15.3,29.62,WNW,292,2.7,3.6,27,0.00,,---,0.25,VWS V14.01,2013-02-27 22:39:00,
2013-02-27 17:40:00,47.8,15.5,29.62,West,270,2.9,5.4,27,0.00,,---,0.25,VWS V14.01,2013-02-27 22:40:00,
2013-02-27 17:44:00,47.7,15.3,29.62,West,270,1.6,3.6,27,0.00,,---,0.25,VWS V14.01,2013-02-27 22:44:00,
2013-02-27 17:50:00,47.7,15.3,29.62,WNW,292,2.9,3.8,27,0.00,,---,0.25,VWS V14.01,2013-02-27 22:50:00,
2013-02-27 17:55:00,47.5,15.2,29.62,WNW,292,1.6,3.8,27,0.00,,---,0.25,VWS V14.01,2013-02-27 22:55:00,
2013-02-27 18:00:00,47.5,15.2,29.62,West,270,3.1,4.3,27,0.00,,---,0.25,VWS V14.01,2013-02-27 23:00:00,
2013-02-27 18:05:00,47.5,15.2,29.62,WNW,292,2.2,4.3,27,0.00,,---,0.25,VWS V14.01,2013-02-27 23:05:00,
2013-02-27 18:10:00,47.5,15.2,29.62,WNW,292,0.9,2.5,27,0.00,,---,0.25,VWS V14.01,2013-02-27 23:10:00,
2013-02-27 18:15:00,47.5,16.0,29.62,West,270,1.3,2.5,28,0.00,,---,0.25,VWS V14.01,2013-02-27 23:15:00,
2013-02-27 18:20:00,47.5,16.0,29.62,West,270,1.3,2.5,28,0.00,,---,0.25,VWS V14.01,2013-02-27 23:20:00,
2013-02-27 18:21:00,47.5,16.0,29.62,West,270,1.6,2.0,28,0.00,,---,0.25,VWS V14.01,2013-02-27 23:21:00,
2013-02-27 18:26:00,47.3,15.9,29.62,West,270,0.0,2.0,28,0.00,,---,0.25,VWS V14.01,2013-02-27 23:26:00,
2013-02-27 18:30:00,47.3,15.9,29.62,West,270,0.0,2.0,28,0.00,,---,0.25,VWS V14.01,2013-02-27 23:30:00,
2013-02-27 18:31:00,47.3,15.9,29.62,West,270,1.3,1.6,28,0.00,,---,0.25,VWS V14.01,2013-02-27 23:31:00,
2013-02-27 18:36:00,47.3,15.9,29.62,North,0,2.0,2.0,28,0.00,,---,0.25,VWS V14.01,2013-02-27 23:36:00,
2013-02-27 18:40:00,47.3,15.9,29.62,North,0,2.0,2.0,28,0.00,,---,0.25,VWS V14.01,2013-02-27 23:40:00,
2013-02-27 18:41:00,47.1,15.7,29.62,North,0,3.6,3.6,28,0.00,,---,0.25,VWS V14.01,2013-02-27 23:41:00,
2013-02-27 18:46:00,46.9,15.6,29.62,NNE,22,2.0,2.0,28,0.00,,---,0.25,VWS V14.01,2013-02-27 23:46:00,
2013-02-27 18:50:00,46.9,15.6,29.62,NNE,22,2.0,3.8,28,0.00,,---,0.25,VWS V14.01,2013-02-27 23:50:00,
2013-02-27 18:51:00,46.9,15.6,29.59,NW,315,2.9,3.4,28,0.00,,---,0.25,VWS V14.01,2013-02-27 23:51:00,
2013-02-27 18:56:00,46.8,15.4,29.59,West,270,2.2,2.7,28,0.00,,---,0.25,VWS V14.01,2013-02-27 23:56:00,
2013-02-27 19:00:00,46.9,15.6,29.59,WSW,248,2.7,3.4,28,0.00,,---,0.25,VWS V14.01,2013-02-28 00:00:00,
2013-02-27 19:02:00,46.8,15.4,29.59,West,270,1.1,2.9,28,0.00,,---,0.25,VWS V14.01,2013-02-28 00:02:00,
2013-02-27 19:07:00,46.2,14.9,29.62,WNW,292,1.6,2.7,28,0.00,,---,0.25,VWS V14.01,2013-02-28 00:07:00,
2013-02-27 19:10:00,46.2,15.7,29.62,WSW,248,2.7,3.1,29,0.00,,---,0.25,VWS V14.01,2013-02-28 00:10:00,
2013-02-27 19:12:00,46.0,15.6,29.62,WSW,248,1.3,2.7,29,0.00,,---,0.25,VWS V14.01,2013-02-28 00:12:00,
2013-02-27 19:17:00,45.9,15.4,29.62,NW,315,1.6,1.6,29,0.00,,---,0.25,VWS V14.01,2013-02-28 00:17:00,
2013-02-27 19:20:00,45.9,15.4,29.62,West,270,0.9,2.7,29,0.00,,---,0.25,VWS V14.01,2013-02-28 00:20:00,
2013-02-27 19:22:00,45.7,15.3,29.62,West,270,2.5,2.5,29,0.00,,---,0.25,VWS V14.01,2013-02-28 00:22:00,
2013-02-27 19:27:00,45.5,15.1,29.62,West,270,0.0,0.0,29,0.00,,---,0.25,VWS V14.01,2013-02-28 00:27:00,
2013-02-27 19:30:00,45.7,16.0,29.62,West,270,0.0,2.5,30,0.00,,---,0.25,VWS V14.01,2013-02-28 00:30:00,
2013-02-27 19:32:00,45.3,15.7,29.62,West,270,0.0,0.0,30,0.00,,---,0.25,VWS V14.01,2013-02-28 00:32:00,
2013-02-27 19:38:00,45.1,15.6,29.65,West,270,0.0,0.0,30,0.00,,---,0.25,VWS V14.01,2013-02-28 00:38:00,
2013-02-27 19:40:00,45.3,15.7,29.65,West,270,0.0,0.0,30,0.00,,---,0.25,VWS V14.01,2013-02-28 00:40:00,
2013-02-27 19:43:00,45.1,15.6,29.65,North,0,0.0,1.3,30,0.00,,---,0.25,VWS V14.01,2013-02-28 00:43:00,
2013-02-27 19:48:00,45.0,15.4,29.65,North,0,0.0,0.0,30,0.00,,---,0.25,VWS V14.01,2013-02-28 00:48:00,
2013-02-27 19:50:00,45.0,15.4,29.65,North,0,0.0,1.3,30,0.00,,---,0.25,VWS V14.01,2013-02-28 00:50:00,
2013-02-27 19:53:00,44.8,15.3,29.65,East,90,0.0,0.0,30,0.00,,---,0.25,VWS V14.01,2013-02-28 00:53:00,
2013-02-27 19:58:00,44.4,15.7,29.65,East,90,0.0,1.1,31,0.00,,---,0.25,VWS V14.01,2013-02-28 00:58:00,
2013-02-27 20:00:00,44.6,15.1,29.65,East,90,1.1,1.3,30,0.00,,---,0.25,VWS V14.01,2013-02-28 01:00:00,
2013-02-27 20:03:00,44.2,15.5,29.65,East,90,0.0,1.1,31,0.00,,---,0.25,VWS V14.01,2013-02-28 01:03:00,
2013-02-27 20:08:00,44.2,16.3,29.65,East,90,0.0,0.0,32,0.00,,---,0.25,VWS V14.01,2013-02-28 01:08:00,
2013-02-27 20:10:00,44.2,16.3,29.65,East,90,0.0,1.1,32,0.00,,---,0.25,VWS V14.01,2013-02-28 01:10:00,
2013-02-27 20:13:00,44.1,16.1,29.65,East,90,0.0,1.3,32,0.00,,---,0.25,VWS V14.01,2013-02-28 01:13:00,
2013-02-27 20:18:00,44.1,16.8,29.65,NW,315,0.0,1.3,33,0.00,,---,0.25,VWS V14.01,2013-02-28 01:18:00,
2013-02-27 20:20:00,44.1,16.1,29.65,East,90,0.0,1.3,32,0.00,,---,0.25,VWS V14.01,2013-02-28 01:20:00,
2013-02-27 20:23:00,44.1,17.5,29.65,NW,315,0.0,1.3,34,0.00,,---,0.25,VWS V14.01,2013-02-28 01:23:00,
2013-02-27 20:29:00,43.9,19.3,29.65,NW,315,0.0,1.3,37,0.00,,---,0.25,VWS V14.01,2013-02-28 01:29:00,
2013-02-27 20:30:00,44.1,18.2,29.65,NW,315,1.1,1.3,35,0.00,,---,0.25,VWS V14.01,2013-02-28 01:30:00,
2013-02-27 20:34:00,43.7,17.9,29.65,NW,315,0.0,1.3,35,0.00,,---,0.25,VWS V14.01,2013-02-28 01:34:00,
2013-02-27 20:39:00,43.7,17.9,29.65,NW,315,0.0,0.0,35,0.00,,---,0.25,VWS V14.01,2013-02-28 01:39:00,
2013-02-27 20:40:00,43.7,17.9,29.65,NW,315,0.0,1.3,35,0.00,,---,0.25,VWS V14.01,2013-02-28 01:40:00,
2013-02-27 20:44:00,43.7,18.5,29.65,ENE,68,0.0,0.0,36,0.00,,---,0.25,VWS V14.01,2013-02-28 01:44:00,
2013-02-27 20:49:00,43.7,17.9,29.65,ENE,68,0.0,0.0,35,0.00,,---,0.25,VWS V14.01,2013-02-28 01:49:00,
2013-02-27 20:50:00,43.7,18.5,29.65,ENE,68,0.0,0.0,36,0.00,,---,0.25,VWS V14.01,2013-02-28 01:50:00,
2013-02-27 20:54:00,43.9,18.0,29.65,ENE,68,0.0,0.0,35,0.00,,---,0.25,VWS V14.01,2013-02-28 01:54:00,
2013-02-27 20:59:00,43.9,18.0,29.65,ENE,68,0.0,0.0,35,0.00,,---,0.25,VWS V14.01,2013-02-28 01:59:00,
2013-02-27 21:00:00,43.7,17.9,29.65,ENE,68,0.0,0.0,35,0.00,,---,0.25,VWS V14.01,2013-02-28 02:00:00,
2013-02-27 21:04:00,43.9,18.0,29.65,ENE,68,0.0,0.0,35,0.00,,---,0.25,VWS V14.01,2013-02-28 02:04:00,
2013-02-27 21:09:00,44.1,19.5,29.68,WNW,292,1.3,1.6,37,0.00,,---,0.25,VWS V14.01,2013-02-28 02:09:00,
2013-02-27 21:10:00,43.9,18.7,29.68,North,0,0.0,0.0,36,0.00,,---,0.25,VWS V14.01,2013-02-28 02:10:00,
2013-02-27 21:14:00,44.1,18.8,29.68,WNW,292,0.0,1.6,36,0.00,,---,0.25,VWS V14.01,2013-02-28 02:14:00,
2013-02-27 21:19:00,44.1,19.5,29.68,SW,225,1.1,1.3,37,0.00,,---,0.25,VWS V14.01,2013-02-28 02:19:00,
2013-02-27 21:20:00,44.1,18.8,29.68,WNW,292,0.0,1.6,36,0.00,,---,0.25,VWS V14.01,2013-02-28 02:20:00,
2013-02-27 21:25:00,43.7,19.8,29.65,SW,225,0.0,1.3,38,0.00,,---,0.25,VWS V14.01,2013-02-28 02:25:00,
2013-02-27 21:30:00,43.7,19.1,29.65,SW,225,0.0,0.0,37,0.00,,---,0.25,VWS V14.01,2013-02-28 02:30:00,
2013-02-27 21:35:00,43.5,18.4,29.65,SW,225,0.0,0.0,36,0.00,,---,0.25,VWS V14.01,2013-02-28 02:35:00,
2013-02-27 21:40:00,43.5,18.4,29.65,SW,225,0.0,0.0,36,0.00,,---,0.25,VWS V14.01,2013-02-28 02:40:00,
2013-02-27 21:45:00,43.5,18.4,29.65,SW,225,0.0,0.0,36,0.00,,---,0.25,VWS V14.01,2013-02-28 02:45:00,
2013-02-27 21:50:00,43.5,19.0,29.65,West,270,0.0,0.9,37,0.00,,---,0.25,VWS V14.01,2013-02-28 02:50:00,
2013-02-27 21:55:00,43.5,19.0,29.65,WNW,292,0.0,0.9,37,0.00,,---,0.25,VWS V14.01,2013-02-28 02:55:00,
2013-02-27 22:00:00,43.5,18.4,29.65,WNW,292,0.0,1.1,36,0.00,,---,0.25,VWS V14.01,2013-02-28 03:00:00,
2013-02-27 22:05:00,43.5,17.7,29.65,WNW,292,0.0,1.1,35,0.00,,---,0.25,VWS V14.01,2013-02-28 03:05:00,
2013-02-27 22:10:00,43.5,17.7,29.65,WNW,292,0.0,0.0,35,0.00,,---,0.25,VWS V14.01,2013-02-28 03:10:00,
2013-02-27 22:15:00,43.5,17.7,29.65,WNW,292,0.0,0.0,35,0.00,,---,0.25,VWS V14.01,2013-02-28 03:15:00,
2013-02-27 22:20:00,43.5,17.0,29.65,WNW,292,0.0,0.0,34,0.00,,---,0.25,VWS V14.01,2013-02-28 03:20:00,
2013-02-27 22:21:00,43.7,17.2,29.65,WNW,292,0.0,0.0,34,0.00,,---,0.25,VWS V14.01,2013-02-28 03:21:00,
2013-02-27 22:26:00,43.9,15.9,29.65,WNW,292,0.0,0.0,32,0.00,,---,0.25,VWS V14.01,2013-02-28 03:26:00,
2013-02-27 22:30:00,43.9,15.9,29.65,WNW,292,0.0,0.0,32,0.00,,---,0.25,VWS V14.01,2013-02-28 03:30:00,
2013-02-27 22:31:00,44.1,16.1,29.65,WNW,292,0.0,0.0,32,0.00,,---,0.25,VWS V14.01,2013-02-28 03:31:00,
2013-02-27 22:36:00,43.9,15.9,29.65,WNW,292,0.0,0.0,32,0.00,,---,0.25,VWS V14.01,2013-02-28 03:36:00,
2013-02-27 22:40:00,43.9,15.9,29.65,WNW,292,0.0,0.0,32,0.00,,---,0.25,VWS V14.01,2013-02-28 03:40:00,
2013-02-27 22:41:00,44.1,16.1,29.65,WNW,292,0.0,0.0,32,0.00,,---,0.25,VWS V14.01,2013-02-28 03:41:00,
2013-02-27 22:46:00,44.1,15.4,29.65,WNW,292,0.0,0.0,31,0.00,,---,0.25,VWS V14.01,2013-02-28 03:46:00,
2013-02-27 22:50:00,44.1,15.4,29.65,WNW,292,0.0,0.0,31,0.00,,---,0.25,VWS V14.01,2013-02-28 03:50:00,
2013-02-27 22:51:00,44.1,15.4,29.62,WNW,292,0.0,0.0,31,0.00,,---,0.25,VWS V14.01,2013-02-28 03:51:00,
2013-02-27 22:57:00,43.9,15.2,29.62,WNW,292,0.0,0.0,31,0.00,,---,0.25,VWS V14.01,2013-02-28 03:57:00,
2013-02-27 23:00:00,43.9,15.2,29.62,WNW,292,0.0,0.0,31,0.00,,---,0.25,VWS V14.01,2013-02-28 04:00:00,
2013-02-27 23:02:00,43.7,15.1,29.62,WNW,292,0.0,0.0,31,0.00,,---,0.25,VWS V14.01,2013-02-28 04:02:00,
2013-02-27 23:07:00,43.5,14.9,29.62,WNW,292,0.0,0.0,31,0.00,,---,0.25,VWS V14.01,2013-02-28 04:07:00,
2013-02-27 23:10:00,43.7,15.1,29.62,WNW,292,0.0,0.0,31,0.00,,---,0.25,VWS V14.01,2013-02-28 04:10:00,
2013-02-27 23:12:00,43.3,15.5,29.62,WNW,292,0.0,0.0,32,0.00,,---,0.25,VWS V14.01,2013-02-28 04:12:00,
2013-02-27 23:17:00,43.0,15.9,29.62,WNW,292,0.0,0.0,33,0.00,,---,0.25,VWS V14.01,2013-02-28 04:17:00,
2013-02-27 23:20:00,43.2,16.0,29.62,WNW,292,0.0,0.0,33,0.00,,---,0.25,VWS V14.01,2013-02-28 04:20:00,
2013-02-27 23:22:00,43.0,15.9,29.62,WNW,292,0.0,0.0,33,0.00,,---,0.25,VWS V14.01,2013-02-28 04:22:00,
2013-02-27 23:27:00,42.8,15.7,29.62,WNW,292,0.0,0.0,33,0.00,,---,0.25,VWS V14.01,2013-02-28 04:27:00,
2013-02-27 23:30:00,42.8,15.7,29.62,WNW,292,0.0,0.0,33,0.00,,---,0.25,VWS V14.01,2013-02-28 04:30:00,
2013-02-27 23:32:00,42.8,15.7,29.62,WNW,292,0.0,0.0,33,0.00,,---,0.25,VWS V14.01,2013-02-28 04:32:00,
2013-02-27 23:37:00,42.6,16.2,29.62,WNW,292,0.0,0.0,34,0.00,,---,0.25,VWS V14.01,2013-02-28 04:37:00,
2013-02-27 23:40:00,42.8,15.7,29.62,WNW,292,0.0,0.0,33,0.00,,---,0.25,VWS V14.01,2013-02-28 04:40:00,
2013-02-27 23:43:00,42.6,16.2,29.62,WNW,292,0.0,0.0,34,0.00,,---,0.25,VWS V14.01,2013-02-28 04:43:00,
2013-02-27 23:48:00,42.8,15.7,29.62,WNW,292,0.0,0.0,33,0.00,,---,0.25,VWS V14.01,2013-02-28 04:48:00,
2013-02-27 23:50:00,42.8,15.7,29.62,WNW,292,0.0,0.0,33,0.00,,---,0.25,VWS V14.01,2013-02-28 04:50:00,
2013-02-27 23:53:00,42.6,15.6,29.59,WNW,292,0.0,0.0,33,0.00,,---,0.25,VWS V14.01,2013-02-28 04:53:00,
2013-02-27 23:58:00,42.6,15.6,29.59,WNW,292,0.0,0.0,33,0.00,,---,0.00,VWS V14.01,2013-02-28 04:58:00,